Hourly Weather Jujuy

Today, 9 March, Tuesday

Time Temperature Precipitation Wind Pressure Humidity
00:00 +21°C° 0 mm 1 mps 652 mmHg 80%
01:00 +21°C° 0 mm 1 mps 652 mmHg 79%
02:00 +21°C° 0 mm 1 mps 652 mmHg 77%
03:00 +21°C° 0 mm 1 mps 652 mmHg 77%
04:00 +20°C° 0 mm 1 mps 652 mmHg 76%
05:00 +20°C° 0 mm 1 mps 652 mmHg 75%
06:00 +19°C° 0 mm 0 mps 652 mmHg 74%
07:00 +20°C° 0 mm 0 mps 653 mmHg 73%
08:00 +20°C° 0 mm 0 mps 653 mmHg 71%
09:00 +24°C° 0 mm 1 mps 653 mmHg 68%
10:00 +25°C° 0 mm 1 mps 653 mmHg 64%
11:00 +26°C° 0 mm 2 mps 653 mmHg 60%
12:00 +26°C° 0.1 mm 2 mps 652 mmHg 60%
13:00 +27°C° 0.1 mm 1 mps 651 mmHg 61%
14:00 +27°C° 0.1 mm 1 mps 651 mmHg 61%
15:00 +26°C° 0.4 mm 1 mps 650 mmHg 63%
16:00 +25°C° 0.4 mm 1 mps 649 mmHg 66%
17:00 +25°C° 0.4 mm 1 mps 649 mmHg 69%
18:00 +24°C° 0 mm 1 mps 649 mmHg 70%
19:00 +23°C° 0 mm 1 mps 650 mmHg 71%
20:00 +22°C° 0 mm 1 mps 650 mmHg 72%
21:00 +22°C° 0.1 mm 1 mps 650 mmHg 73%
22:00 +21°C° 0.1 mm 1 mps 650 mmHg 74%
23:00 +21°C° 0.1 mm 1 mps 651 mmHg 75%

Tomorrow, 10 March, Wednesday

Time Temperature Precipitation Wind Pressure Humidity
00:00 +20°C° 0.1 mm 1 mps 650 mmHg 75%
01:00 +20°C° 0.1 mm 1 mps 650 mmHg 76%
02:00 +20°C° 0.1 mm 1 mps 649 mmHg 76%
03:00 +20°C° 0 mm 1 mps 649 mmHg 77%
04:00 +19°C° 0 mm 1 mps 649 mmHg 77%
05:00 +19°C° 0 mm 1 mps 649 mmHg 77%
06:00 +20°C° 0 mm 1 mps 649 mmHg 75%
07:00 +20°C° 0 mm 0 mps 650 mmHg 72%
08:00 +21°C° 0 mm 0 mps 651 mmHg 69%
09:00 +24°C° 0.1 mm 1 mps 651 mmHg 64%
10:00 +26°C° 0.1 mm 2 mps 651 mmHg 60%
11:00 +27°C° 0.1 mm 2 mps 651 mmHg 55%
12:00 +28°C° 0.1 mm 2 mps 650 mmHg 54%
13:00 +29°C° 0.1 mm 2 mps 650 mmHg 53%
14:00 +29°C° 0.1 mm 2 mps 649 mmHg 52%
15:00 +29°C° 0.1 mm 2 mps 648 mmHg 54%
16:00 +28°C° 0.1 mm 2 mps 648 mmHg 56%
17:00 +28°C° 0.1 mm 2 mps 647 mmHg 58%
18:00 +26°C° 0 mm 2 mps 647 mmHg 64%
19:00 +24°C° 0 mm 1 mps 647 mmHg 70%
20:00 +22°C° 0 mm 1 mps 646 mmHg 76%
21:00 +22°C° 0 mm 1 mps 647 mmHg 75%
22:00 +21°C° 0 mm 1 mps 647 mmHg 75%
23:00 +21°C° 0 mm 1 mps 648 mmHg 74%

Day after tomorrow, 11 March, Thursday

Time Temperature Precipitation Wind Pressure Humidity
00:00 +21°C° 0 mm 1 mps 647 mmHg 75%
01:00 +20°C° 0 mm 1 mps 647 mmHg 75%
02:00 +20°C° 0 mm 1 mps 647 mmHg 76%
03:00 +20°C° 0 mm 1 mps 647 mmHg 76%
04:00 +20°C° 0 mm 1 mps 647 mmHg 77%
05:00 +19°C° 0 mm 1 mps 647 mmHg 78%
06:00 +19°C° 0 mm 0 mps 648 mmHg 74%
07:00 +20°C° 0 mm 0 mps 648 mmHg 69%
08:00 +22°C° 0 mm 0 mps 649 mmHg 65%
09:00 +25°C° 0 mm 1 mps 650 mmHg 61%
10:00 +27°C° 0 mm 1 mps 650 mmHg 57%
11:00 +28°C° 0 mm 2 mps 650 mmHg 53%
12:00 +29°C° 0.1 mm 2 mps 650 mmHg 52%
13:00 +30°C° 0.1 mm 2 mps 650 mmHg 50%
14:00 +30°C° 0.1 mm 2 mps 650 mmHg 49%
15:00 +30°C° 0.3 mm 2 mps 649 mmHg 51%
16:00 +29°C° 0.3 mm 1 mps 649 mmHg 52%
17:00 +29°C° 0.3 mm 1 mps 648 mmHg 54%
18:00 +27°C° 0.2 mm 1 mps 648 mmHg 59%
19:00 +25°C° 0.2 mm 1 mps 648 mmHg 64%
20:00 +23°C° 0.2 mm 1 mps 648 mmHg 69%
21:00 +23°C° 0.1 mm 1 mps 649 mmHg 70%
22:00 +21°C° 0.1 mm 2 mps 649 mmHg 72%
23:00 +20°C° 0.1 mm 2 mps 650 mmHg 74%

12 March, Friday

Time Temperature Precipitation Wind Pressure Humidity
00:00 +20°C° 0 mm 2 mps 650 mmHg 71%
01:00 +20°C° 0 mm 2 mps 649 mmHg 69%
02:00 +21°C° 0 mm 1 mps 649 mmHg 67%
03:00 +20°C° 0 mm 1 mps 649 mmHg 67%
04:00 +20°C° 0 mm 1 mps 649 mmHg 67%
05:00 +20°C° 0 mm 1 mps 649 mmHg 67%
06:00 +22°C° 0 mm 1 mps 649 mmHg 66%
07:00 +23°C° 0 mm 1 mps 650 mmHg 64%
08:00 +22°C° 0 mm 0 mps 651 mmHg 63%
09:00 +26°C° 0.1 mm 1 mps 651 mmHg 59%
10:00 +27°C° 0.1 mm 2 mps 651 mmHg 55%
11:00 +29°C° 0.1 mm 3 mps 651 mmHg 51%
12:00 +28°C° 0.4 mm 2 mps 651 mmHg 53%
13:00 +28°C° 0.4 mm 2 mps 650 mmHg 55%
14:00 +28°C° 0.4 mm 1 mps 650 mmHg 57%
15:00 +27°C° 0.5 mm 1 mps 649 mmHg 62%
16:00 +26°C° 0.5 mm 1 mps 648 mmHg 67%
17:00 +24°C° 0.5 mm 2 mps 647 mmHg 72%
18:00 +23°C° 0.5 mm 1 mps 648 mmHg 75%
19:00 +22°C° 0.5 mm 1 mps 648 mmHg 78%
20:00 +21°C° 0.5 mm 1 mps 649 mmHg 81%
21:00 +21°C° 1.4 mm 1 mps 649 mmHg 85%
22:00 +20°C° 1.4 mm 1 mps 650 mmHg 88%
23:00 +20°C° 1.4 mm 1 mps 650 mmHg 91%

13 March, Saturday

Time Temperature Precipitation Wind Pressure Humidity
00:00 +20°C° 1.4 mm 1 mps 650 mmHg 93%
01:00 +20°C° 1.4 mm 1 mps 650 mmHg 94%
02:00 +20°C° 1.4 mm 1 mps 650 mmHg 95%
03:00 +19°C° 0.7 mm 1 mps 649 mmHg 95%
04:00 +19°C° 0.7 mm 1 mps 649 mmHg 95%
05:00 +19°C° 0.7 mm 1 mps 649 mmHg 95%
06:00 +20°C° 0.4 mm 1 mps 650 mmHg 93%
07:00 +18°C° 0.4 mm 0 mps 650 mmHg 91%
08:00 +19°C° 0.4 mm 0 mps 650 mmHg 88%
09:00 +22°C° 0.3 mm 1 mps 651 mmHg 82%
10:00 +24°C° 0.3 mm 1 mps 651 mmHg 76%
11:00 +25°C° 0.3 mm 1 mps 651 mmHg 70%
12:00 +25°C° 0.6 mm 1 mps 650 mmHg 72%
13:00 +25°C° 0.6 mm 1 mps 650 mmHg 73%
14:00 +25°C° 0.6 mm 2 mps 649 mmHg 75%
15:00 +25°C° 0.8 mm 1 mps 649 mmHg 76%
16:00 +24°C° 0.8 mm 1 mps 648 mmHg 78%
17:00 +24°C° 0.8 mm 1 mps 647 mmHg 79%
18:00 +23°C° 1.4 mm 1 mps 648 mmHg 83%
19:00 +22°C° 1.4 mm 1 mps 648 mmHg 86%
20:00 +20°C° 1.4 mm 1 mps 648 mmHg 90%
21:00 +20°C° 0.6 mm 1 mps 649 mmHg 90%
22:00 +20°C° 0.6 mm 1 mps 649 mmHg 90%
23:00 +19°C° 0.6 mm 1 mps 650 mmHg 91%

14 March, Sunday

Time Temperature Precipitation Wind Pressure Humidity
00:00 +17°C° 0.1 mm 0 mps 649 mmHg 90%
01:00 +18°C° 0.1 mm 0 mps 649 mmHg 90%
02:00 +18°C° 0.1 mm 0 mps 649 mmHg 89%
03:00 +17°C° 0 mm 0 mps 649 mmHg 90%
04:00 +17°C° 0 mm 0 mps 648 mmHg 90%
05:00 +19°C° 0 mm 1 mps 648 mmHg 90%
06:00 +18°C° 0 mm 0 mps 649 mmHg 88%
07:00 +18°C° 0 mm 0 mps 649 mmHg 86%
08:00 +19°C° 0 mm 0 mps 650 mmHg 84%
09:00 +23°C° 0.1 mm 1 mps 650 mmHg 80%
10:00 +24°C° 0.1 mm 1 mps 650 mmHg 75%
11:00 +25°C° 0.1 mm 2 mps 650 mmHg 71%
12:00 +26°C° 0.6 mm 2 mps 649 mmHg 72%
13:00 +26°C° 0.6 mm 2 mps 649 mmHg 73%
14:00 +26°C° 0.6 mm 2 mps 648 mmHg 75%
15:00 +25°C° 1.1 mm 1 mps 647 mmHg 78%
16:00 +25°C° 1.1 mm 1 mps 647 mmHg 81%
17:00 +24°C° 1.1 mm 1 mps 646 mmHg 84%
18:00 +23°C° 1.1 mm 1 mps 646 mmHg 87%
19:00 +22°C° 1.1 mm 1 mps 647 mmHg 89%
20:00 +21°C° 1.1 mm 1 mps 647 mmHg 92%
21:00 +20°C° 1.2 mm 1 mps 647 mmHg 92%
22:00 +20°C° 1.2 mm 1 mps 648 mmHg 91%
23:00 +20°C° 1.2 mm 1 mps 649 mmHg 91%
Show more

We Need Your Consent

Meteoprog and our Service Providers may store and access personal data such as cookies, device identifiers or other similar technologies on your device and process such data to personalise content and ads, as well as provide social media features and to analyse the traffic.

  • Store and/or access information on your device

    Cookies, device identifiers or other information can be stored or accessed on your device for the purposes indicated above.

  • Personalised ads and content, ad and content measurement, audience insights, and products development

    Ads and content can be personalised based on a profile. More data can be added to better personalise ads and content. Ad and content performance can be measured. Insights about the audience who saw the ads and content can be derived. Such data can be used to develop or improve user’s experience, systems and software.

By clicking ‘I Agree’ you will allow the use of indicated cookies, device identifiers, web beacons or other similar technologies. Your settings can be changed in the browser on your device.

For certain purposes, legitimate interests may be relied on, rather than consent. You can read more about this in our Privacy and Cookie Policy.